GW2465 Weather Reports


time (UTC)temp
C
wind
direction
speed
KPH
gust
KPH
rain 1hr
cm
rain 24hr
cm
rain mn
cm
humidity
%
barometer
mb
20260506140056 13 196 6.4 14.5 0.18 0.28 0.28 91 1008.3
20260506134544 13 177 4.8 11.3 0.20 0.25 0.25 91 1008.3
20260506133051 13 205 4.8 11.3 0.20 0.23 0.23 91 1008.7
20260506131541 13 164 3.2 9.7 0.15 0.15 0.15 89 1008.8
20260506124546 14 196 4.8 11.3 0.05 0.05 0.05 86 1009.1
20260506123044 15 227 4.8 9.7 0.03 0.03 0.03 82 1009.1
20260506121551 15 187 4.8 12.9 0.00 0.00 0.00 80 1008.8
20260506120043 15 188 3.2 9.7 0.00 0.00 0.00 79 1008.8
20260506114548 15 189 3.2 9.7 0.00 0.00 0.00 77 1008.7
20260506113046 15 230 6.4 14.5 0.00 0.00 0.00 76 1008.6
20260506111543 15 195 4.8 11.3 0.00 0.00 0.00 75 1008.5
20260506110050 15 194 4.8 9.7 0.00 0.00 0.00 73 1008.4
20260506104541 15 200 4.8 9.7 0.00 0.00 0.00 72 1008.2
20260506103046 15 193 3.2 8.0 0.00 0.00 0.00 71 1007.9
20260506101554 15 175 3.2 9.7 0.00 0.00 0.00 69 1007.9
20260506100046 16 189 4.8 11.3 0.00 0.00 0.00 66 1008.0
20260506094552 16 180 4.8 12.9 0.00 0.00 0.00 65 1008.0
20260506093047 16 174 4.8 9.7 0.00 0.00 0.00 64 1008.1
20260506091541 16 219 4.8 9.7 0.00 0.00 0.00 62 1008.3
20260506090047 17 187 4.8 12.9 0.00 0.00 0.00 61 1008.2
20260506084542 17 202 4.8 9.7 0.00 0.00 0.00 60 1008.3
20260506083045 17 206 3.2 14.5 0.00 0.00 0.00 58 1008.5
20260506081542 17 221 3.2 12.9 0.00 0.00 0.00 57 1008.6
20260506073049 17 161 6.4 16.1 0.00 0.00 0.00 54 1008.5
20260506071600 17 168 4.8 14.5 0.00 0.00 0.00 53 1008.7
20260506061546 18 167 8.0 17.7 0.00 0.00 0.00 50 1009.2
20260506044544 17 200 3.2 9.7 0.00 0.00 0.00 49 1009.7
20260506043041 17 180 3.2 9.7 0.00 0.00 0.00 48 1009.8
20260506041557 18 179 3.2 8.0 0.00 0.00 0.00 47 1009.9
20260506040052 18 215 3.2 8.0 0.00 0.00 0.00 47 1009.9
20260506034547 18 205 3.2 8.0 0.00 0.00 0.00 47 1010.1
20260506033044 18 194 3.2 9.7 0.00 0.00 0.00 47 1009.9
20260506031547 18 190 3.2 11.3 0.00 0.00 0.00 47 1009.9
20260506030042 18 188 3.2 8.0 0.00 0.00 0.00 46 1009.9
20260506024541 18 212 3.2 8.0 0.00 0.00 0.00 46 1010.0
20260506023045 18 205 3.2 8.0 0.00 0.00 0.00 47 1010.1
20260506021544 18 188 1.6 6.4 0.00 0.00 0.00 47 1010.1
20260506020047 19 190 1.6 4.8 0.00 0.00 0.00 47 1010.2
20260506014551 20 190 0.0 4.8 0.00 0.00 0.00 46 1010.0
20260506013041 20 190 1.6 6.4 0.00 0.00 0.00 43 1010.0
20260506011544 21 182 1.6 8.0 0.00 0.00 0.00 41 1009.9
20260506010041 21 184 6.4 12.9 0.00 0.00 0.00 38 1009.7
20260506004543 22 187 3.2 12.9 0.00 0.00 0.00 39 1009.4
20260506003038 22 232 4.8 12.9 0.00 0.00 0.00 39 1009.2
20260506001605 22 173 4.8 11.3 0.00 0.00 0.00 40 1009.0
20260506000047 22 212 6.4 16.1 0.00 0.00 0.00 39 1008.8
20260505234549 22 205 6.4 16.1 0.00 0.00 0.00 39 1008.7
20260505233040 22 207 6.4 16.1 0.00 0.00 0.00 39 1008.6
20260505231551 22 193 6.4 19.3 0.00 0.00 0.00 39 1008.6
20260505230045 22 211 8.0 17.7 0.00 0.00 0.00 38 1008.6
20260505224544 22 207 8.0 16.1 0.00 0.00 0.00 39 1008.6
20260505223055 22 202 6.4 14.5 0.00 0.00 0.00 39 1008.5
20260505221552 22 202 6.4 17.7 0.00 0.00 0.00 40 1008.4
20260505220047 22 185 8.0 22.5 0.00 0.00 0.00 40 1008.3
20260505214600 22 212 8.0 19.3 0.00 0.00 0.00 40 1008.2
20260505213057 22 226 8.0 16.1 0.00 0.00 0.00 39 1008.2
20260505211557 22 198 8.0 17.7 0.00 0.00 0.00 40 1008.1
20260505210049 23 202 8.0 25.7 0.00 0.00 0.00 38 1007.9
20260505204544 23 213 8.0 19.3 0.00 0.00 0.00 38 1008.0
20260505203046 23 184 9.7 20.9 0.00 0.00 0.00 37 1007.9
20260505201559 24 204 9.7 19.3 0.00 0.00 0.00 37 1008.0
20260505200048 24 185 12.9 22.5 0.00 0.00 0.00 36 1008.1
20260505194543 24 184 8.0 20.9 0.00 0.00 0.00 37 1008.1
20260505193049 24 220 9.7 24.1 0.00 0.00 0.00 36 1008.1
20260505191552 24 78 9.7 22.5 0.00 0.00 0.00 36 1008.5
20260505190055 24 196 11.3 24.1 0.00 0.00 0.00 34 1008.6
20260505184552 24 216 8.0 25.7 0.00 0.00 0.00 35 1008.9
20260505183048 24 197 8.0 24.1 0.00 0.00 0.00 34 1008.8
20260505181540 24 231 9.7 22.5 0.00 0.00 0.00 34 1009.2
20260505180050 24 198 8.0 20.9 0.00 0.00 0.00 37 1009.3
20260505174542 23 220 9.7 20.9 0.00 0.00 0.00 40 1009.0
20260505173049 23 276 8.0 16.1 0.00 0.00 0.00 40 1009.4
20260505171548 23 194 8.0 17.7 0.00 0.00 0.00 40 1009.4
20260505170049 23 205 9.7 17.7 0.00 0.00 0.00 38 1009.6
20260505164543 23 221 9.7 24.1 0.00 0.00 0.00 39 1009.6
20260505163041 23 142 4.8 20.9 0.00 0.00 0.00 43 1009.8
20260505161548 23 259 9.7 22.5 0.00 0.00 0.00 43 1010.2
20260505153104 21 228 6.4 14.5 0.00 0.00 0.00 49 1010.3
20260505151547 21 223 6.4 14.5 0.00 0.00 0.00 50 1010.6
20260505150108 21 209 6.4 16.1 0.00 0.00 0.00 50 1010.5